Lid_Strength_Index
-1 -1 -1 2 8 8 10 9 6 7 6 6 6 7 6 5 7 10 1 1 1 0 0 -0 -1 -2 -1 -1 -1 -0 -1 -0 -1 -2 -1 -1 -1 -1 -1 -1 -1 -0 -0 -1 -1 -1 -1 -1 -1
-1 -0 1 4 9 11 9 7 8 6 5 5 6 6 6 7 3 3 2 1 0 0 -0 -0 -1 -2 -2 -1 -1 -1 -1 -1 -1 -1 -1 -1 -1 -1 -0 -1 -1 -0 -0 -1 -0 -1 -1 -1 -1
-0 0 4 6 8 10 9 7 6 6 5 6 7 6 6 5 3 2 0 1 0 0 -0 -1 -2 -2 -1 -2 -2 -1 -2 -1 -1 -0 -1 -1 -1 -0 -1 -0 -0 -0 0 0 -0 0 0 -0 0
1 2 3 8 9 7 7 6 5 6 6 6 7 7 5 2 2 1 1 0 0 0 -1 -2 -2 -2 -2 -2 -2 -2 -1 -1 -1 -0 -0 -0 -0 -1 -0 -0 0 1 1 1 1 1 1 1 1
1 3 7 8 8 7 6 5 5 6 6 6 7 7 6 3 1 0 1 0 0 0 -1 -1 -2 -2 -2 -2 -2 -2 -1 -1 -0 -0 0 -0 0 1 1 1 1 1 2 2 2 2 2 2 1
4 4 8 9 8 6 5 5 5 6 6 6 7 7 5 1 1 0 0 0 -0 0 -1 -1 -2 -2 -2 -2 -2 -2 -1 -1 -0 0 1 1 1 1 2 3 3 3 3 3 3 3 2 2 2
5 6 8 8 8 7 6 4 5 5 6 6 5 8 4 2 1 0 0 0 0 0 -0 -1 -1 -2 -2 -2 -2 -2 -1 -0 0 1 2 2 3 3 3 3 3 4 4 3 4 3 3 3 3
4 6 8 7 8 8 5 5 5 5 5 5 5 7 6 2 1 0 0 0 1 1 0 -1 -1 -1 -1 -1 -2 -1 -1 -1 -0 1 2 4 4 3 4 5 3 4 4 4 4 3 3 3 5
3 8 9 8 8 7 5 6 5 5 6 6 5 4 3 1 1 1 1 1 1 1 1 -0 -1 -1 -1 -1 -1 -1 -1 -1 0 1 1 3 3 3 4 5 4 3 3 4 4 4 4 5 6
5 8 8 5 5 6 6 5 5 6 6 6 5 4 2 1 2 2 2 2 2 2 2 1 0 -0 -1 -0 -1 -0 -0 0 1 1 2 2 3 4 5 5 4 4 5 4 5 5 5 5 5
5 8 6 5 5 5 5 5 4 5 6 4 5 4 3 2 2 2 2 2 2 1 1 1 0 -0 -0 1 0 0 1 1 1 2 2 3 4 4 5 5 5 4 5 5 5 5 5 6 6
7 5 5 5 5 5 6 4 5 5 5 3 3 3 3 3 3 2 2 2 2 2 1 1 0 0 1 1 1 1 1 2 2 2 3 3 4 5 5 5 5 5 5 5 5 5 5 6 6
7 6 5 4 5 5 4 5 5 5 3 3 3 4 3 3 2 2 2 2 2 2 1 1 0 1 1 1 1 1 2 2 3 3 3 4 4 4 4 5 5 5 5 5 5 5 6 6 6
6 6 6 5 5 5 5 5 5 4 3 3 3 4 3 3 2 2 2 2 2 2 2 1 1 0 1 1 1 2 2 2 2 3 3 4 4 4 4 5 5 5 5 5 5 6 6 6 5
6 8 7 7 6 6 6 8 7 4 4 4 4 4 4 2 2 2 2 2 2 2 2 1 1 1 1 1 1 1 2 2 2 3 3 4 4 4 4 5 5 5 5 5 5 5 5 5 5
8 7 9 8 8 7 7 10 6 5 5 6 5 5 4 3 3 2 2 2 2 2 2 2 1 1 1 2 2 2 2 2 2 2 3 3 3 3 4 5 5 4 5 5 5 5 5 5 5
8 10 9 8 7 7 8 9 6 5 6 6 6 6 5 5 3 2 2 2 2 2 2 2 2 2 2 2 2 2 2 2 2 2 2 3 3 4 4 4 5 5 5 5 5 5 5 5 5
10 10 9 9 7 8 8 9 7 6 6 6 6 6 6 6 4 3 2 2 2 2 2 2 2 2 2 2 2 2 2 2 2 2 2 3 3 3 4 4 4 5 5 5 5 5 4 5 5
9 9 9 8 7 9 9 9 8 7 6 6 6 6 6 5 4 3 3 2 2 2 2 3 3 2 2 2 3 3 3 3 2 2 2 3 3 3 4 4 4 4 5 5 4 4 5 5 4
9 10 10 8 8 9 9 10 8 9 8 7 6 6 6 5 5 4 4 3 3 3 2 2 3 2 2 2 2 2 3 2 2 2 3 3 3 3 4 4 4 4 4 4 4 5 5 5 5
9 10 10 11 9 8 9 9 8 7 7 7 7 7 6 5 5 5 4 4 3 3 2 3 3 3 3 2 2 2 2 2 2 2 3 3 3 3 3 4 4 4 4 4 4 4 4 5 4
11 9 10 10 10 12 9 12 8 7 7 7 6 6 6 6 5 4 4 4 3 2 2 3 3 3 3 2 3 3 3 4 3 3 3 2 3 3 3 4 4 4 4 4 4 4 4 4 5
10 9 10 10 11 11 10 12 9 8 9 8 7 6 6 5 6 5 5 4 3 2 2 2 2 2 2 2 2 3 3 3 2 3 2 2 2 3 3 4 4 4 4 4 4 4 4 4 5
9 10 9 9 10 13 11 11 11 10 9 8 7 6 6 6 5 5 5 4 3 2 2 2 2 2 2 2 2 2 3 3 3 3 3 2 2 2 3 3 3 3 3 4 4 4 4 4 4
10 11 13 13 13 13 11 11 10 9 8 8 7 7 6 5 5 5 5 5 4 3 2 2 2 3 2 2 2 2 2 2 2 2 3 3 3 3 3 3 3 3 3 3 3 4 4 4 4
10 11 13 16 14 13 11 13 10 8 7 7 6 6 6 6 5 5 5 5 5 4 3 3 3 3 2 2 2 2 2 2 2 2 2 3 2 2 2 3 3 3 3 3 3 4 3 3 4
11 12 10 13 12 14 11 11 9 8 8 7 7 6 6 6 6 5 5 5 5 5 4 4 3 3 3 3 2 2 2 2 2 2 2 2 2 2 2 3 3 3 4 3 3 4 4 4 3
10 9 12 12 15 16 13 12 10 9 8 7 7 7 6 6 6 5 5 5 5 5 4 4 4 4 3 3 3 3 3 3 2 2 2 2 2 2 2 3 3 3 3 3 3 3 3 3 4
11 11 11 11 12 14 14 12 8 8 8 8 7 7 6 6 6 6 5 5 4 4 5 5 5 5 4 4 3 3 3 3 3 3 2 2 2 2 3 3 3 3 4 4 4 3 3 4 4
10 10 10 12 13 12 12 12 8 7 8 7 7 7 6 6 6 6 5 5 5 5 4 5 5 5 4 4 4 4 3 3 3 3 3 2 2 2 3 3 4 4 4 4 4 4 3 3 4